QPF
0.00 0.00 0.01 0.02 0.04 0.15 0.23 0.09 0.01 0.00 0.00 0.00 0.00 0.00 0.00 0.00 0.00 0.01 0.00 0.00 0.00 0.00 0.00 0.00 0.00 0.00 0.00 0.00 0.00 0.00 0.00 0.00 0.00 0.00 0.00 0.00 0.00 0.00 0.00 0.00 0.00 0.00 0.00 0.00 0.00 0.00 0.00 0.00 0.00
0.00 0.00 0.00 0.00 0.07 0.28 0.13 0.03 0.01 0.00 0.00 0.00 0.00 0.00 0.00 0.00 0.00 0.00 0.00 0.00 0.00 0.00 0.00 0.00 0.00 0.00 0.00 0.00 0.00 0.00 0.00 0.00 0.00 0.00 0.00 0.00 0.00 0.00 0.00 0.00 0.00 0.00 0.00 0.00 0.00 0.00 0.00 0.00 0.00
0.00 0.00 0.00 0.00 0.03 0.07 0.03 0.00 0.00 0.00 0.00 0.00 0.00 0.00 0.00 0.00 0.00 0.00 0.00 0.00 0.00 0.00 0.00 0.00 0.00 0.00 0.00 0.00 0.00 0.00 0.00 0.00 0.00 0.00 0.00 0.00 0.00 0.00 0.01 0.01 0.00 0.00 0.01 0.00 0.00 0.00 0.00 0.00 0.00
0.00 0.00 0.00 0.00 0.00 0.01 0.00 0.00 0.00 0.00 0.00 0.00 0.00 0.00 0.00 0.00 0.00 0.00 0.00 0.00 0.00 0.00 0.00 0.00 0.00 0.00 0.00 0.00 0.00 0.00 0.00 0.00 0.00 0.00 0.00 0.00 0.00 0.00 0.00 0.00 0.00 0.00 0.01 0.00 0.00 0.00 0.00 0.00 0.00
0.00 0.00 0.00 0.00 0.00 0.00 0.00 0.00 0.00 0.00 0.00 0.00 0.00 0.00 0.00 0.00 0.00 0.00 0.00 0.00 0.00 0.00 0.00 0.00 0.00 0.00 0.00 0.00 0.00 0.00 0.00 0.00 0.00 0.00 0.00 0.00 0.00 0.00 0.00 0.00 0.00 0.00 0.00 0.00 0.00 0.00 0.00 0.00 0.00
0.00 0.00 0.00 0.00 0.00 0.00 0.00 0.00 0.00 0.00 0.00 0.00 0.00 0.01 0.00 0.00 0.00 0.00 0.00 0.00 0.00 0.00 0.00 0.00 0.00 0.00 0.00 0.00 0.00 0.00 0.00 0.00 0.00 0.00 0.00 0.00 0.00 0.00 0.00 0.00 0.00 0.00 0.00 0.00 0.00 0.00 0.00 0.00 0.00
0.00 0.00 0.00 0.00 0.00 0.00 0.00 0.00 0.00 0.00 0.00 0.00 0.01 0.02 0.00 0.01 0.00 0.00 0.00 0.00 0.00 0.00 0.00 0.00 0.00 0.00 0.00 0.00 0.00 0.00 0.00 0.00 0.00 0.00 0.00 0.00 0.00 0.00 0.00 0.00 0.00 0.00 0.00 0.00 0.00 0.00 0.00 0.00 0.00
0.00 0.00 0.00 0.00 0.00 0.00 0.00 0.00 0.00 0.00 0.00 0.00 0.00 0.00 0.02 0.03 0.00 0.00 0.00 0.00 0.00 0.00 0.00 0.00 0.00 0.00 0.00 0.00 0.00 0.00 0.00 0.00 0.00 0.00 0.00 0.00 0.00 0.00 0.00 0.00 0.00 0.00 0.00 0.01 0.01 0.01 0.01 0.01 0.01
0.00 0.00 0.00 0.00 0.00 0.00 0.00 0.00 0.00 0.00 0.00 0.00 0.00 0.00 0.01 0.02 0.01 0.00 0.00 0.00 0.00 0.00 0.00 0.00 0.00 0.00 0.00 0.00 0.00 0.00 0.00 0.00 0.00 0.01 0.00 0.00 0.00 0.01 0.01 0.01 0.01 0.01 0.01 0.01 0.01 0.01 0.02 0.02 0.01
0.00 0.00 0.00 0.00 0.00 0.00 0.00 0.00 0.00 0.00 0.00 0.01 0.03 0.02 0.03 0.03 0.00 0.00 0.00 0.00 0.00 0.00 0.00 0.00 0.00 0.00 0.00 0.00 0.00 0.01 0.01 0.01 0.01 0.01 0.02 0.02 0.02 0.02 0.01 0.03 0.04 0.03 0.02 0.02 0.02 0.03 0.02 0.02 0.02
0.00 0.00 0.00 0.00 0.00 0.00 0.00 0.00 0.00 0.00 0.00 0.04 0.06 0.03 0.02 0.01 0.00 0.00 0.00 0.00 0.00 0.00 0.00 0.00 0.00 0.00 0.00 0.00 0.01 0.01 0.01 0.04 0.05 0.05 0.07 0.08 0.07 0.04 0.02 0.04 0.07 0.06 0.05 0.04 0.07 0.06 0.03 0.04 0.06
0.00 0.00 0.00 0.00 0.00 0.00 0.00 0.00 0.00 0.00 0.01 0.02 0.03 0.01 0.01 0.03 0.03 0.01 0.00 0.00 0.00 0.00 0.00 0.00 0.00 0.00 0.01 0.01 0.02 0.02 0.02 0.04 0.05 0.07 0.10 0.12 0.12 0.09 0.07 0.08 0.10 0.13 0.12 0.11 0.10 0.11 0.10 0.12 0.14
0.00 0.00 0.00 0.00 0.00 0.00 0.00 0.00 0.00 0.00 0.00 0.00 0.01 0.01 0.00 0.01 0.02 0.03 0.01 0.02 0.00 0.00 0.01 0.00 0.01 0.02 0.03 0.04 0.05 0.02 0.03 0.04 0.06 0.10 0.11 0.12 0.14 0.13 0.13 0.12 0.12 0.13 0.16 0.17 0.14 0.13 0.15 0.18 0.21
0.00 0.00 0.00 0.00 0.00 0.00 0.00 0.00 0.00 0.00 0.00 0.00 0.00 0.00 0.01 0.01 0.01 0.01 0.01 0.01 0.01 0.01 0.01 0.02 0.02 0.03 0.05 0.07 0.08 0.07 0.05 0.05 0.05 0.04 0.07 0.11 0.13 0.16 0.17 0.17 0.17 0.13 0.11 0.15 0.20 0.17 0.23 0.24 0.20
0.00 0.00 0.00 0.00 0.00 0.00 0.00 0.00 0.00 0.00 0.00 0.01 0.02 0.01 0.01 0.01 0.01 0.01 0.01 0.02 0.01 0.01 0.03 0.04 0.03 0.04 0.05 0.08 0.10 0.10 0.07 0.06 0.06 0.07 0.07 0.11 0.14 0.18 0.20 0.20 0.19 0.17 0.16 0.20 0.20 0.18 0.21 0.17 0.15
0.00 0.00 0.00 0.00 0.00 0.00 0.00 0.00 0.01 0.03 0.01 0.00 0.01 0.00 0.00 0.01 0.01 0.02 0.02 0.02 0.02 0.03 0.04 0.04 0.04 0.04 0.06 0.07 0.08 0.09 0.07 0.06 0.06 0.07 0.10 0.12 0.14 0.16 0.21 0.23 0.20 0.20 0.20 0.21 0.21 0.17 0.17 0.16 0.14
0.00 0.00 0.00 0.00 0.00 0.00 0.00 0.00 0.02 0.05 0.02 0.00 0.00 0.00 0.00 0.00 0.01 0.01 0.02 0.02 0.04 0.05 0.05 0.05 0.04 0.04 0.04 0.05 0.06 0.06 0.08 0.07 0.06 0.07 0.10 0.12 0.14 0.17 0.20 0.22 0.21 0.21 0.23 0.23 0.17 0.18 0.21 0.18 0.15
0.00 0.00 0.01 0.01 0.01 0.00 0.00 0.00 0.01 0.02 0.03 0.01 0.00 0.00 0.00 0.01 0.01 0.01 0.02 0.02 0.04 0.03 0.04 0.04 0.03 0.03 0.02 0.03 0.04 0.04 0.04 0.04 0.05 0.06 0.07 0.10 0.14 0.16 0.21 0.21 0.23 0.24 0.24 0.23 0.18 0.17 0.18 0.14 0.10
0.00 0.00 0.01 0.01 0.00 0.00 0.00 0.00 0.01 0.01 0.00 0.00 0.00 0.00 0.00 0.00 0.01 0.01 0.01 0.01 0.01 0.01 0.01 0.01 0.01 0.01 0.01 0.02 0.02 0.03 0.04 0.05 0.05 0.06 0.06 0.09 0.13 0.17 0.23 0.24 0.28 0.29 0.28 0.25 0.20 0.18 0.15 0.10 0.07
0.00 0.00 0.01 0.01 0.00 0.00 0.00 0.01 0.02 0.01 0.00 0.00 0.00 0.00 0.00 0.00 0.00 0.01 0.00 0.00 0.00 0.00 0.01 0.01 0.01 0.01 0.01 0.02 0.02 0.03 0.03 0.03 0.05 0.06 0.06 0.08 0.12 0.19 0.23 0.26 0.31 0.33 0.30 0.25 0.22 0.21 0.14 0.10 0.08
0.00 0.01 0.02 0.03 0.02 0.01 0.01 0.06 0.10 0.06 0.01 0.00 0.00 0.00 0.00 0.00 0.01 0.01 0.01 0.00 0.00 0.00 0.00 0.00 0.00 0.00 0.01 0.01 0.02 0.02 0.02 0.02 0.03 0.04 0.05 0.06 0.07 0.11 0.16 0.21 0.24 0.28 0.27 0.25 0.23 0.21 0.16 0.10 0.07
0.02 0.01 0.00 0.00 0.01 0.03 0.03 0.14 0.31 0.26 0.10 0.03 0.00 0.00 0.00 0.00 0.00 0.00 0.00 0.00 0.00 0.00 0.00 0.00 0.00 0.00 0.00 0.00 0.01 0.00 0.01 0.01 0.01 0.02 0.03 0.04 0.06 0.08 0.11 0.14 0.17 0.19 0.19 0.20 0.19 0.17 0.17 0.13 0.09
0.01 0.00 0.00 0.00 0.00 0.02 0.04 0.15 0.34 0.34 0.29 0.12 0.01 0.00 0.00 0.00 0.00 0.00 0.00 0.00 0.00 0.00 0.00 0.00 0.00 0.00 0.00 0.00 0.00 0.00 0.00 0.00 0.01 0.01 0.02 0.02 0.04 0.06 0.07 0.09 0.12 0.15 0.16 0.17 0.16 0.17 0.16 0.15 0.13
0.00 0.00 0.01 0.03 0.04 0.06 0.10 0.13 0.26 0.36 0.29 0.12 0.02 0.00 0.00 0.00 0.00 0.00 0.00 0.00 0.00 0.00 0.00 0.00 0.00 0.01 0.01 0.01 0.01 0.01 0.01 0.01 0.00 0.01 0.01 0.02 0.03 0.04 0.05 0.06 0.08 0.10 0.11 0.15 0.17 0.18 0.17 0.15 0.16
0.00 0.01 0.13 0.30 0.23 0.17 0.11 0.13 0.22 0.14 0.06 0.03 0.01 0.00 0.00 0.00 0.00 0.00 0.00 0.00 0.00 0.00 0.00 0.00 0.00 0.01 0.01 0.01 0.01 0.01 0.01 0.01 0.01 0.01 0.01 0.01 0.01 0.01 0.02 0.04 0.05 0.07 0.08 0.10 0.13 0.14 0.16 0.18 0.18
0.00 0.01 0.07 0.16 0.14 0.16 0.14 0.24 0.25 0.05 0.01 0.00 0.00 0.00 0.00 0.00 0.00 0.00 0.00 0.00 0.00 0.00 0.00 0.00 0.00 0.01 0.01 0.01 0.02 0.01 0.01 0.00 0.00 0.00 0.01 0.01 0.01 0.01 0.01 0.01 0.02 0.03 0.04 0.06 0.08 0.11 0.12 0.16 0.18
0.00 0.00 0.01 0.01 0.02 0.05 0.13 0.29 0.18 0.02 0.00 0.00 0.00 0.00 0.00 0.00 0.00 0.00 0.00 0.00 0.00 0.00 0.00 0.00 0.00 0.00 0.01 0.01 0.01 0.01 0.01 0.01 0.00 0.00 0.01 0.00 0.01 0.01 0.01 0.01 0.01 0.02 0.02 0.03 0.04 0.06 0.09 0.11 0.13
0.00 0.00 0.00 0.00 0.01 0.03 0.07 0.16 0.16 0.04 0.01 0.00 0.00 0.00 0.00 0.00 0.00 0.00 0.00 0.00 0.00 0.00 0.00 0.00 0.00 0.00 0.00 0.01 0.01 0.00 0.00 0.01 0.01 0.01 0.01 0.01 0.01 0.01 0.01 0.01 0.01 0.01 0.02 0.03 0.03 0.03 0.05 0.06 0.08
0.00 0.00 0.00 0.00 0.00 0.01 0.04 0.09 0.04 0.01 0.00 0.00 0.00 0.00 0.00 0.00 0.00 0.00 0.00 0.00 0.00 0.00 0.00 0.00 0.00 0.00 0.00 0.00 0.00 0.00 0.00 0.00 0.00 0.01 0.01 0.01 0.01 0.01 0.01 0.01 0.01 0.01 0.01 0.02 0.03 0.03 0.03 0.04 0.05
0.00 0.00 0.00 0.01 0.00 0.00 0.01 0.04 0.00 0.00 0.00 0.00 0.00 0.00 0.00 0.00 0.00 0.00 0.00 0.00 0.00 0.00 0.00 0.00 0.00 0.00 0.00 0.00 0.00 0.00 0.00 0.00 0.00 0.00 0.00 0.01 0.01 0.01 0.02 0.02 0.02 0.02 0.01 0.01 0.01 0.02 0.03 0.03 0.04
MSLP
1010.24 1011.07 1011.81 1012.27 1012.31 1011.87 1010.98 1009.75 1008.34 1006.98 1005.82 1005.01 1004.59 1004.51 1004.70 1005.01 1005.35 1005.62 1005.81 1005.95 1006.11 1006.34 1006.71 1007.23 1007.87 1008.55 1009.20 1009.75 1010.15 1010.42 1010.60 1010.74 1010.93 1011.20 1011.57 1012.01 1012.49 1012.94 1013.30 1013.55 1013.69 1013.77 1013.81 1013.88 1014.00 1014.18 1014.40 1014.62 1014.81
1010.24 1011.03 1011.64 1011.91 1011.72 1011.07 1010.00 1008.65 1007.23 1005.92 1004.90 1004.26 1004.01 1004.09 1004.38 1004.75 1005.10 1005.36 1005.52 1005.65 1005.81 1006.09 1006.53 1007.13 1007.85 1008.61 1009.31 1009.88 1010.30 1010.57 1010.74 1010.89 1011.08 1011.35 1011.73 1012.17 1012.63 1013.04 1013.36 1013.56 1013.67 1013.72 1013.76 1013.85 1014.00 1014.22 1014.47 1014.72 1014.91
1010.30 1010.99 1011.42 1011.45 1011.03 1010.15 1008.93 1007.52 1006.12 1004.92 1004.07 1003.62 1003.55 1003.77 1004.15 1004.55 1004.89 1005.11 1005.24 1005.35 1005.53 1005.86 1006.38 1007.07 1007.88 1008.71 1009.46 1010.07 1010.51 1010.78 1010.96 1011.11 1011.31 1011.59 1011.95 1012.37 1012.79 1013.14 1013.40 1013.54 1013.60 1013.63 1013.68 1013.80 1013.99 1014.26 1014.55 1014.83 1015.03
1010.42 1010.95 1011.17 1010.95 1010.29 1009.22 1007.88 1006.45 1005.12 1004.07 1003.41 1003.15 1003.24 1003.58 1004.01 1004.42 1004.72 1004.90 1004.99 1005.10 1005.31 1005.70 1006.30 1007.08 1007.97 1008.87 1009.67 1010.30 1010.75 1011.04 1011.22 1011.37 1011.57 1011.85 1012.20 1012.58 1012.95 1013.24 1013.43 1013.52 1013.54 1013.56 1013.62 1013.76 1014.01 1014.32 1014.66 1014.96 1015.17
1010.57 1010.92 1010.90 1010.44 1009.57 1008.35 1006.95 1005.55 1004.33 1003.45 1002.98 1002.89 1003.12 1003.53 1003.98 1004.36 1004.61 1004.73 1004.80 1004.91 1005.16 1005.62 1006.30 1007.17 1008.13 1009.07 1009.90 1010.54 1010.98 1011.26 1011.44 1011.60 1011.80 1012.07 1012.41 1012.76 1013.08 1013.32 1013.46 1013.50 1013.49 1013.50 1013.58 1013.76 1014.04 1014.40 1014.77 1015.09 1015.29
1010.69 1010.84 1010.60 1009.94 1008.90 1007.60 1006.20 1004.88 1003.81 1003.11 1002.81 1002.86 1003.18 1003.62 1004.05 1004.37 1004.55 1004.62 1004.67 1004.79 1005.09 1005.61 1006.37 1007.30 1008.31 1009.27 1010.09 1010.71 1011.13 1011.38 1011.55 1011.70 1011.90 1012.18 1012.51 1012.84 1013.14 1013.34 1013.45 1013.46 1013.43 1013.44 1013.53 1013.74 1014.06 1014.45 1014.84 1015.16 1015.36
1010.70 1010.67 1010.25 1009.43 1008.31 1006.99 1005.66 1004.47 1003.57 1003.04 1002.89 1003.06 1003.42 1003.84 1004.21 1004.46 1004.56 1004.57 1004.59 1004.73 1005.07 1005.66 1006.47 1007.44 1008.46 1009.40 1010.18 1010.75 1011.12 1011.33 1011.47 1011.62 1011.82 1012.10 1012.44 1012.78 1013.06 1013.26 1013.34 1013.34 1013.32 1013.33 1013.44 1013.67 1014.01 1014.41 1014.81 1015.12 1015.30
1010.55 1010.36 1009.80 1008.90 1007.76 1006.50 1005.29 1004.27 1003.56 1003.21 1003.19 1003.43 1003.80 1004.18 1004.47 1004.61 1004.63 1004.58 1004.58 1004.73 1005.11 1005.73 1006.57 1007.54 1008.53 1009.42 1010.14 1010.63 1010.93 1011.10 1011.20 1011.34 1011.54 1011.84 1012.19 1012.54 1012.84 1013.04 1013.13 1013.13 1013.12 1013.14 1013.25 1013.49 1013.83 1014.23 1014.62 1014.92 1015.07
1010.20 1009.89 1009.25 1008.33 1007.24 1006.10 1005.06 1004.24 1003.72 1003.54 1003.64 1003.92 1004.28 1004.60 1004.80 1004.85 1004.78 1004.69 1004.66 1004.81 1005.19 1005.82 1006.65 1007.59 1008.53 1009.34 1009.96 1010.37 1010.60 1010.70 1010.78 1010.90 1011.11 1011.42 1011.79 1012.16 1012.48 1012.69 1012.80 1012.81 1012.80 1012.83 1012.95 1013.17 1013.50 1013.88 1014.25 1014.52 1014.66
1009.68 1009.29 1008.62 1007.73 1006.73 1005.74 1004.90 1004.29 1003.97 1003.94 1004.14 1004.47 1004.81 1005.07 1005.19 1005.17 1005.04 1004.90 1004.86 1004.99 1005.37 1005.97 1006.76 1007.63 1008.47 1009.18 1009.71 1010.02 1010.18 1010.24 1010.28 1010.39 1010.61 1010.93 1011.31 1011.70 1012.03 1012.26 1012.38 1012.41 1012.40 1012.43 1012.53 1012.73 1013.03 1013.37 1013.71 1013.96 1014.08
1009.06 1008.63 1007.96 1007.13 1006.24 1005.42 1004.77 1004.37 1004.23 1004.35 1004.64 1005.01 1005.35 1005.58 1005.66 1005.59 1005.43 1005.27 1005.21 1005.33 1005.67 1006.22 1006.93 1007.70 1008.43 1009.03 1009.45 1009.69 1009.78 1009.80 1009.82 1009.93 1010.14 1010.46 1010.85 1011.24 1011.58 1011.81 1011.94 1011.97 1011.95 1011.96 1012.03 1012.19 1012.44 1012.74 1013.04 1013.27 1013.38
1008.46 1008.00 1007.35 1006.58 1005.81 1005.15 1004.67 1004.44 1004.46 1004.70 1005.08 1005.49 1005.86 1006.10 1006.18 1006.12 1005.97 1005.81 1005.75 1005.84 1006.13 1006.60 1007.21 1007.86 1008.48 1008.96 1009.29 1009.46 1009.51 1009.50 1009.51 1009.60 1009.81 1010.12 1010.49 1010.86 1011.18 1011.41 1011.52 1011.54 1011.51 1011.48 1011.51 1011.62 1011.81 1012.05 1012.31 1012.51 1012.62
1008.01 1007.53 1006.88 1006.17 1005.50 1004.95 1004.61 1004.51 1004.65 1004.99 1005.45 1005.92 1006.34 1006.63 1006.76 1006.75 1006.64 1006.52 1006.47 1006.54 1006.77 1007.15 1007.65 1008.17 1008.66 1009.05 1009.29 1009.41 1009.43 1009.41 1009.41 1009.49 1009.67 1009.94 1010.27 1010.61 1010.89 1011.08 1011.17 1011.17 1011.11 1011.05 1011.02 1011.07 1011.19 1011.37 1011.57 1011.74 1011.86
1007.81 1007.31 1006.67 1005.99 1005.37 1004.90 1004.65 1004.63 1004.85 1005.25 1005.76 1006.30 1006.78 1007.15 1007.37 1007.45 1007.43 1007.38 1007.35 1007.41 1007.58 1007.87 1008.24 1008.64 1009.01 1009.30 1009.49 1009.57 1009.58 1009.55 1009.55 1009.60 1009.74 1009.96 1010.22 1010.49 1010.71 1010.86 1010.91 1010.88 1010.79 1010.68 1010.60 1010.58 1010.62 1010.73 1010.87 1011.02 1011.14
1007.91 1007.39 1006.75 1006.09 1005.51 1005.08 1004.86 1004.88 1005.12 1005.54 1006.08 1006.66 1007.21 1007.66 1007.99 1008.18 1008.27 1008.29 1008.31 1008.36 1008.48 1008.67 1008.93 1009.21 1009.48 1009.70 1009.84 1009.91 1009.91 1009.88 1009.87 1009.89 1009.97 1010.11 1010.29 1010.47 1010.62 1010.71 1010.72 1010.66 1010.54 1010.39 1010.26 1010.17 1010.14 1010.17 1010.25 1010.36 1010.47
1008.29 1007.76 1007.13 1006.49 1005.94 1005.53 1005.32 1005.33 1005.55 1005.94 1006.47 1007.05 1007.63 1008.15 1008.57 1008.88 1009.07 1009.18 1009.24 1009.30 1009.37 1009.49 1009.64 1009.83 1010.01 1010.17 1010.28 1010.34 1010.35 1010.32 1010.29 1010.26 1010.28 1010.33 1010.41 1010.49 1010.56 1010.60 1010.57 1010.48 1010.35 1010.18 1010.01 1009.86 1009.76 1009.71 1009.72 1009.78 1009.87
1008.85 1008.35 1007.77 1007.19 1006.68 1006.29 1006.07 1006.04 1006.19 1006.51 1006.96 1007.49 1008.06 1008.60 1009.08 1009.47 1009.75 1009.94 1010.05 1010.11 1010.15 1010.20 1010.28 1010.38 1010.50 1010.62 1010.72 1010.78 1010.79 1010.76 1010.71 1010.64 1010.58 1010.53 1010.51 1010.50 1010.50 1010.48 1010.43 1010.34 1010.20 1010.02 1009.83 1009.63 1009.47 1009.34 1009.28 1009.28 1009.34
1009.46 1009.05 1008.58 1008.10 1007.68 1007.34 1007.12 1007.04 1007.09 1007.28 1007.60 1008.01 1008.49 1008.99 1009.48 1009.90 1010.24 1010.48 1010.62 1010.70 1010.72 1010.73 1010.75 1010.80 1010.87 1010.96 1011.06 1011.12 1011.15 1011.13 1011.05 1010.94 1010.81 1010.68 1010.56 1010.47 1010.40 1010.34 1010.28 1010.20 1010.08 1009.91 1009.71 1009.49 1009.27 1009.08 1008.95 1008.88 1008.88
1009.98 1009.73 1009.44 1009.15 1008.87 1008.62 1008.42 1008.28 1008.21 1008.24 1008.37 1008.60 1008.92 1009.31 1009.73 1010.13 1010.48 1010.75 1010.92 1011.00 1011.02 1011.01 1010.99 1011.01 1011.06 1011.14 1011.24 1011.33 1011.37 1011.36 1011.27 1011.13 1010.93 1010.73 1010.54 1010.38 1010.26 1010.19 1010.13 1010.07 1009.99 1009.86 1009.67 1009.44 1009.19 1008.94 1008.73 1008.58 1008.52
1010.31 1010.29 1010.25 1010.21 1010.14 1010.03 1009.88 1009.69 1009.50 1009.32 1009.22 1009.20 1009.31 1009.52 1009.81 1010.15 1010.47 1010.74 1010.92 1011.02 1011.05 1011.03 1011.00 1011.00 1011.05 1011.14 1011.25 1011.36 1011.43 1011.44 1011.36 1011.19 1010.96 1010.71 1010.46 1010.25 1010.11 1010.02 1009.99 1009.97 1009.93 1009.84 1009.69 1009.47 1009.20 1008.91 1008.64 1008.42 1008.29
1010.37 1010.63 1010.91 1011.17 1011.36 1011.43 1011.35 1011.14 1010.81 1010.43 1010.07 1009.78 1009.63 1009.62 1009.74 1009.96 1010.23 1010.48 1010.67 1010.79 1010.83 1010.82 1010.80 1010.80 1010.86 1010.96 1011.10 1011.25 1011.35 1011.38 1011.32 1011.16 1010.91 1010.63 1010.35 1010.12 1009.95 1009.87 1009.86 1009.88 1009.90 1009.87 1009.76 1009.57 1009.31 1009.00 1008.68 1008.41 1008.20
1010.17 1010.74 1011.35 1011.94 1012.40 1012.67 1012.69 1012.46 1012.02 1011.44 1010.82 1010.26 1009.83 1009.59 1009.54 1009.63 1009.82 1010.05 1010.25 1010.38 1010.45 1010.46 1010.46 1010.48 1010.55 1010.67 1010.83 1011.01 1011.15 1011.22 1011.19 1011.05 1010.81 1010.53 1010.23 1009.98 1009.81 1009.74 1009.74 1009.80 1009.87 1009.90 1009.85 1009.71 1009.47 1009.17 1008.84 1008.52 1008.26
1009.78 1010.63 1011.56 1012.45 1013.17 1013.63 1013.75 1013.52 1012.98 1012.22 1011.38 1010.58 1009.91 1009.46 1009.24 1009.22 1009.35 1009.55 1009.76 1009.92 1010.02 1010.06 1010.07 1010.10 1010.18 1010.31 1010.50 1010.70 1010.88 1010.99 1011.00 1010.89 1010.68 1010.40 1010.11 1009.85 1009.67 1009.59 1009.61 1009.69 1009.80 1009.88 1009.90 1009.82 1009.63 1009.37 1009.05 1008.73 1008.43
1009.31 1010.38 1011.56 1012.68 1013.61 1014.21 1014.41 1014.18 1013.58 1012.70 1011.69 1010.70 1009.86 1009.25 1008.90 1008.80 1008.89 1009.09 1009.31 1009.50 1009.62 1009.68 1009.71 1009.74 1009.82 1009.95 1010.14 1010.36 1010.56 1010.71 1010.76 1010.69 1010.50 1010.24 1009.95 1009.69 1009.50 1009.41 1009.42 1009.51 1009.64 1009.77 1009.85 1009.84 1009.73 1009.53 1009.26 1008.96 1008.67
1008.86 1010.06 1011.38 1012.64 1013.69 1014.38 1014.63 1014.41 1013.76 1012.81 1011.71 1010.62 1009.68 1008.99 1008.59 1008.45 1008.53 1008.74 1008.98 1009.19 1009.33 1009.41 1009.43 1009.45 1009.51 1009.62 1009.80 1010.01 1010.23 1010.39 1010.47 1010.43 1010.27 1010.03 1009.74 1009.47 1009.26 1009.14 1009.12 1009.21 1009.35 1009.51 1009.65 1009.71 1009.69 1009.58 1009.40 1009.16 1008.91
1008.52 1009.73 1011.07 1012.36 1013.44 1014.15 1014.41 1014.19 1013.55 1012.59 1011.48 1010.38 1009.43 1008.74 1008.34 1008.22 1008.32 1008.55 1008.81 1009.04 1009.19 1009.26 1009.27 1009.26 1009.27 1009.35 1009.49 1009.68 1009.88 1010.05 1010.14 1010.12 1009.98 1009.75 1009.46 1009.17 1008.92 1008.77 1008.72 1008.78 1008.91 1009.09 1009.27 1009.41 1009.49 1009.48 1009.40 1009.26 1009.09
1008.34 1009.46 1010.71 1011.92 1012.92 1013.59 1013.82 1013.61 1013.00 1012.09 1011.05 1010.03 1009.16 1008.54 1008.21 1008.15 1008.29 1008.55 1008.83 1009.07 1009.21 1009.25 1009.22 1009.17 1009.13 1009.14 1009.23 1009.37 1009.54 1009.69 1009.77 1009.76 1009.62 1009.40 1009.10 1008.79 1008.51 1008.31 1008.22 1008.24 1008.35 1008.53 1008.74 1008.94 1009.11 1009.21 1009.25 1009.23 1009.16
1008.33 1009.28 1010.34 1011.38 1012.24 1012.80 1012.99 1012.78 1012.23 1011.43 1010.53 1009.65 1008.93 1008.44 1008.22 1008.23 1008.43 1008.72 1009.01 1009.23 1009.35 1009.36 1009.28 1009.16 1009.06 1009.01 1009.03 1009.11 1009.23 1009.34 1009.40 1009.37 1009.23 1009.00 1008.69 1008.36 1008.05 1007.81 1007.66 1007.64 1007.72 1007.88 1008.11 1008.35 1008.58 1008.78 1008.93 1009.03 1009.08
1008.48 1009.20 1010.03 1010.84 1011.51 1011.93 1012.06 1011.87 1011.41 1010.75 1010.02 1009.34 1008.81 1008.48 1008.38 1008.48 1008.72 1009.02 1009.30 1009.49 1009.57 1009.53 1009.40 1009.23 1009.06 1008.94 1008.89 1008.91 1008.97 1009.03 1009.05 1009.00 1008.85 1008.60 1008.29 1007.94 1007.60 1007.32 1007.13 1007.05 1007.09 1007.23 1007.44 1007.69 1007.97 1008.23 1008.47 1008.67 1008.83
1008.74 1009.24 1009.81 1010.37 1010.84 1011.12 1011.18 1011.02 1010.65 1010.16 1009.63 1009.16 1008.82 1008.65 1008.67 1008.83 1009.10 1009.39 1009.63 1009.78 1009.81 1009.72 1009.54 1009.32 1009.10 1008.93 1008.82 1008.78 1008.78 1008.78 1008.76 1008.67 1008.50 1008.24 1007.92 1007.56 1007.21 1006.90 1006.67 1006.55 1006.54 1006.62 1006.80 1007.03 1007.31 1007.60 1007.90 1008.18 1008.44
Thickness
5842 5842 5842 5834 5815 5797 5792 5825 5861 5870 5875 5888 5891 5885 5872 5859 5848 5835 5869 5880 5872 5857 5847 5839 5835 5830 5825 5821 5817 5813 5809 5805 5801 5798 5794 5791 5788 5785 5782 5779 5777 5775 5773 5771 5769 5767 5766 5764 5762
5848 5848 5840 5830 5809 5785 5804 5845 5861 5874 5884 5894 5892 5886 5873 5863 5871 5868 5873 5875 5867 5854 5845 5839 5832 5828 5823 5819 5815 5811 5807 5803 5800 5796 5793 5789 5786 5783 5781 5778 5776 5774 5772 5770 5768 5766 5764 5762 5761
5851 5853 5837 5831 5821 5812 5830 5863 5872 5886 5894 5890 5884 5883 5871 5861 5869 5870 5873 5875 5865 5854 5845 5836 5830 5825 5821 5817 5812 5808 5805 5801 5798 5794 5791 5788 5785 5782 5779 5777 5774 5772 5770 5768 5766 5764 5762 5761 5759
5848 5844 5839 5831 5833 5855 5866 5876 5883 5884 5887 5891 5885 5869 5866 5874 5876 5875 5876 5874 5862 5852 5843 5833 5828 5823 5818 5814 5810 5806 5803 5799 5796 5793 5789 5786 5783 5781 5778 5775 5773 5771 5769 5767 5764 5762 5761 5759 5758
5848 5839 5829 5831 5847 5869 5884 5888 5888 5880 5878 5884 5880 5859 5853 5871 5879 5877 5874 5870 5861 5852 5841 5831 5825 5820 5816 5811 5808 5804 5800 5797 5794 5791 5788 5785 5782 5779 5777 5774 5771 5769 5767 5765 5763 5761 5759 5758 5756
5837 5839 5826 5833 5855 5875 5887 5890 5888 5880 5879 5880 5870 5852 5849 5868 5870 5871 5872 5868 5863 5852 5840 5829 5823 5818 5813 5809 5805 5802 5798 5795 5792 5789 5786 5783 5780 5777 5775 5773 5770 5768 5765 5763 5761 5759 5757 5756 5755
5829 5827 5825 5838 5856 5872 5883 5889 5882 5875 5873 5873 5874 5850 5847 5859 5867 5871 5868 5867 5862 5852 5838 5828 5821 5816 5811 5806 5803 5799 5796 5792 5790 5787 5784 5781 5778 5776 5773 5771 5768 5766 5764 5762 5759 5757 5756 5754 5753
5841 5828 5823 5839 5854 5870 5887 5887 5887 5880 5874 5887 5883 5854 5839 5854 5866 5867 5864 5862 5857 5848 5837 5829 5822 5815 5810 5804 5800 5797 5793 5790 5787 5784 5781 5778 5775 5773 5771 5769 5767 5765 5762 5760 5758 5756 5754 5752 5751
5841 5815 5813 5836 5853 5866 5884 5877 5885 5892 5882 5877 5875 5866 5860 5862 5863 5858 5853 5851 5847 5842 5836 5830 5822 5815 5810 5805 5800 5795 5791 5787 5784 5781 5778 5775 5773 5772 5770 5768 5766 5763 5760 5758 5756 5754 5752 5751 5750
5829 5809 5822 5850 5862 5865 5873 5871 5875 5872 5863 5855 5853 5857 5862 5858 5854 5846 5841 5839 5836 5833 5832 5830 5822 5816 5812 5809 5801 5795 5791 5787 5782 5781 5777 5773 5772 5772 5772 5770 5765 5762 5759 5757 5754 5753 5750 5749 5749
5828 5819 5833 5847 5860 5863 5861 5864 5871 5859 5842 5842 5839 5843 5851 5850 5846 5840 5838 5837 5832 5830 5828 5826 5820 5815 5812 5808 5800 5796 5794 5789 5783 5780 5777 5774 5771 5769 5768 5767 5763 5759 5756 5755 5753 5751 5749 5749 5749
5826 5830 5837 5844 5855 5853 5852 5855 5853 5849 5842 5849 5849 5846 5846 5843 5838 5836 5833 5830 5828 5825 5822 5821 5817 5811 5807 5804 5800 5796 5793 5789 5784 5779 5775 5772 5768 5766 5765 5763 5759 5756 5754 5753 5752 5750 5750 5749 5749
5824 5831 5840 5846 5849 5849 5848 5844 5842 5840 5846 5849 5844 5839 5836 5835 5835 5835 5833 5827 5823 5818 5816 5814 5811 5805 5800 5795 5791 5790 5786 5784 5781 5776 5772 5769 5765 5761 5759 5758 5755 5752 5751 5750 5748 5749 5748 5747 5746
5824 5831 5837 5842 5843 5845 5837 5838 5835 5830 5839 5835 5828 5823 5825 5824 5825 5824 5821 5818 5815 5812 5809 5808 5804 5799 5793 5787 5783 5780 5779 5777 5774 5770 5766 5763 5761 5757 5753 5750 5748 5747 5746 5744 5744 5744 5743 5742 5742
5828 5819 5823 5832 5837 5840 5833 5818 5819 5823 5826 5817 5812 5809 5808 5809 5811 5809 5808 5807 5806 5804 5802 5799 5795 5792 5786 5780 5776 5773 5771 5769 5767 5764 5761 5757 5753 5750 5747 5744 5741 5740 5740 5739 5738 5739 5738 5737 5738
5815 5808 5802 5824 5833 5836 5822 5795 5806 5817 5810 5802 5799 5797 5794 5793 5795 5796 5797 5796 5795 5793 5790 5788 5787 5782 5776 5772 5768 5764 5762 5760 5758 5755 5753 5750 5747 5744 5741 5738 5736 5735 5735 5735 5733 5733 5732 5733 5734
5800 5791 5793 5809 5826 5828 5818 5792 5799 5807 5800 5791 5788 5785 5783 5782 5782 5784 5786 5785 5783 5781 5778 5775 5773 5770 5767 5764 5760 5757 5754 5751 5749 5747 5745 5743 5740 5737 5735 5733 5731 5730 5730 5729 5728 5729 5729 5728 5730
5782 5787 5790 5792 5808 5816 5805 5791 5792 5797 5791 5783 5780 5776 5772 5770 5770 5774 5776 5776 5773 5771 5769 5766 5763 5760 5758 5756 5752 5749 5747 5745 5743 5740 5737 5734 5732 5730 5729 5727 5726 5725 5724 5723 5723 5724 5725 5725 5727
5797 5790 5786 5794 5812 5808 5798 5787 5785 5787 5783 5776 5771 5767 5764 5763 5766 5768 5768 5767 5765 5762 5759 5756 5752 5750 5748 5744 5740 5738 5735 5735 5734 5733 5730 5727 5725 5724 5723 5722 5721 5720 5718 5718 5719 5720 5720 5720 5724
5797 5788 5787 5796 5810 5803 5789 5779 5779 5776 5775 5771 5766 5762 5759 5757 5758 5759 5759 5758 5756 5752 5750 5748 5745 5742 5739 5735 5733 5731 5729 5727 5727 5725 5723 5721 5719 5718 5718 5716 5715 5714 5713 5713 5713 5714 5714 5715 5718
5790 5784 5782 5781 5791 5795 5783 5761 5756 5757 5763 5764 5763 5762 5759 5755 5752 5751 5751 5750 5748 5745 5742 5740 5736 5733 5730 5728 5725 5723 5720 5719 5717 5715 5714 5713 5712 5711 5710 5709 5709 5709 5708 5707 5708 5708 5707 5707 5712
5774 5788 5788 5783 5774 5766 5766 5732 5726 5734 5742 5752 5756 5757 5755 5754 5751 5748 5746 5743 5741 5739 5737 5733 5729 5725 5722 5719 5715 5710 5707 5704 5705 5705 5705 5705 5704 5703 5702 5701 5702 5702 5702 5702 5702 5704 5704 5703 5702
5788 5798 5786 5774 5763 5755 5747 5723 5711 5721 5725 5741 5749 5753 5752 5751 5748 5744 5742 5739 5737 5735 5732 5728 5723 5719 5715 5710 5706 5702 5698 5696 5696 5695 5695 5695 5695 5695 5695 5693 5693 5692 5692 5694 5695 5697 5697 5698 5697
5806 5793 5772 5758 5743 5719 5719 5712 5705 5717 5729 5738 5747 5750 5749 5748 5745 5742 5740 5736 5733 5731 5727 5723 5717 5712 5708 5703 5698 5693 5688 5685 5683 5682 5682 5684 5685 5685 5685 5685 5683 5682 5682 5683 5685 5687 5688 5690 5692
5797 5770 5728 5707 5697 5702 5726 5715 5713 5737 5748 5748 5747 5748 5749 5747 5743 5738 5734 5731 5728 5724 5721 5716 5710 5704 5700 5695 5690 5685 5680 5677 5674 5674 5673 5673 5673 5673 5673 5674 5673 5672 5672 5673 5675 5676 5679 5681 5682
5791 5776 5737 5713 5710 5715 5717 5703 5717 5744 5755 5756 5754 5751 5749 5745 5740 5735 5732 5728 5723 5719 5714 5708 5702 5696 5692 5687 5682 5677 5673 5669 5668 5666 5664 5663 5662 5662 5663 5662 5662 5661 5661 5662 5663 5664 5666 5670 5672
5786 5783 5786 5763 5752 5732 5716 5711 5721 5748 5752 5753 5751 5749 5744 5741 5737 5733 5729 5724 5719 5713 5707 5700 5693 5688 5683 5678 5674 5669 5666 5662 5659 5656 5654 5653 5653 5652 5652 5651 5650 5649 5649 5650 5651 5652 5654 5657 5660
5799 5793 5780 5762 5743 5735 5725 5718 5718 5731 5739 5745 5745 5743 5740 5738 5734 5729 5724 5718 5712 5706 5699 5692 5685 5678 5673 5669 5664 5661 5657 5653 5650 5648 5645 5643 5642 5640 5639 5638 5638 5638 5638 5638 5638 5640 5642 5645 5648
5785 5781 5773 5766 5759 5739 5726 5716 5742 5740 5744 5744 5743 5741 5737 5732 5727 5722 5717 5711 5704 5697 5689 5682 5675 5668 5663 5658 5654 5650 5647 5644 5642 5639 5636 5634 5632 5631 5629 5627 5627 5627 5627 5627 5627 5628 5630 5632 5635
5786 5777 5769 5746 5743 5751 5742 5723 5757 5753 5751 5746 5741 5738 5733 5728 5723 5717 5709 5701 5693 5685 5678 5671 5665 5659 5653 5649 5644 5640 5637 5633 5630 5627 5625 5622 5620 5619 5617 5616 5615 5615 5615 5616 5616 5616 5618 5620 5622